Regional Weather Roundup
Issued by NWS

Home | Current Version | Previous Version | Graphics & Text | Print | Product List | Glossary On
Versions: 1 2 3 4 5 6 7 8 9 10 11 12 13 14 15 16 17 18 19 20 21 22 23 24 25 26 27 28 29 30 31 32 33 34 35 36 37 38 39 40 41 42 43 44 45 46 47 48 49 50
218
ASUS43 KLMK 300610
RWRKY
KENTUCKY REGIONAL WEATHER ROUNDUP
NATIONAL WEATHER SERVICE LOUISVILLE KY
200 AM EDT THU MAR 30 2017

NOTE "FAIR" INDICATES FEW OR NO CLOUDS BELOW 12,000 FEET
WITH NO SIGNIFICANT WEATHER AND/OR OBSTRUCTIONS TO VISIBILITY.

KYZ001>023-026-027-061>063-070>075-300700-
WESTERN AND SOUTH CENTRAL KENTUCKY

CITY           SKY/WX    TMP DP  RH WIND       PRES   REMARKS
PADUCAH        CLOUDY    70  55  59 SE12      29.75F
HENDERSON      PTCLDY    61  52  72 E9        29.80F
OWENSBORO      CLOUDY    63  53  70 SE10      29.84F
HOPKINSVILLE   MOCLDY    67  59  74 S5        29.83F
BOWLING GREEN  CLOUDY    62  54  74 E6        29.88R
GLASGOW        CLOUDY    62  53  72 E3        29.89S
$$

KYZ024-025-028>034-038-045-046-053-300700-
NORTH CENTRAL KENTUCKY

CITY           SKY/WX    TMP DP  RH WIND       PRES   REMARKS
LOUISVILLE/SDF CLOUDY    57  44  62 E9        29.90F
LOUISVILLE/LOU CLOUDY    56  46  69 E6        29.91F
FORT KNOX      MOCLDY    56  48  73 E13       29.87F
$$

KYZ035>037-039>044-047>052-055>060-089>105-300700-
NORTHEAST KENTUCKY

CITY           SKY/WX    TMP DP  RH WIND       PRES   REMARKS
LEXINGTON      PTCLDY    54  44  69 E12       29.95F
COVINGTON      CLOUDY    53  44  71 SE14      29.95F
FRANKFORT      CLOUDY    54  44  69 E10       29.94F
$$

KYZ054-064>069-076>088-106>120-300700-
SOUTHEAST KENTUCKY

CITY           SKY/WX    TMP DP  RH WIND       PRES   REMARKS
JACKSON        CLEAR     51  45  79 NE5       29.98F
LONDON         CLOUDY    56  47  71 NE3       29.95F
SOMERSET       PTCLDY    57  46  67 E3        29.94F
MIDDLESBORO    CLEAR     53  50  91 CALM      29.98F
MONTICELLO     CLOUDY    57  52  83 W5        29.94F
$$





USA.gov is the U.S. government's official web portal to all federal, state and local government web resources and services.